User: anonymous   Login
Location: Caltech
(34.1382°N, 118.1253°W)
Time: 06:50:37
(UTC-07:00)
Language:

MaSat-1 - Orbit

View from above orbital plane
View from above orbital plane
View from above satellite
View from above satellite

Ground track
Ground track

The orbit data is extracted from the following two-line orbital elements,

1 38081U 12006E   14295.07837269  .00295796  23769-4  22885-2 0  5297
2 38081 069.4462 010.8136 0258339 169.9825 190.6650 15.38798211142742
Epoch (UTC): 22 October 2014 01:52:51
Eccentricity: 0.0258339
inclination: 69.4462°
perigee height: 273 km
apogee height: 626 km
right ascension of ascending node: 10.8136°
argument of perigee: 169.9825°
revolutions per day: 15.38798211
mean anomaly at epoch: 190.6650°
orbit number at epoch: 14274

The dashed part of the orbit path shows where the satellite is in the earth's shadow,  

DLR